Voltar ao catálogo

FENGYUN 1C DEB

AtivoSSO
NORAD 41827·DEBRIS·🇨🇳 China

Lançado May 10, 1999 de Taiyuan Satellite Launch Center

Loading…

Próximas Passagens (próximas 24 horas)

TLE

AtualizadoSource: Space-Track

Época: Sep 12, 2026, 03:29 UTC

1 41827U 99025EYE 26255.14534162  .00002123  00000-0  87548-3 0  9996
2 41827  98.7267 328.5452 0058372 141.1725 219.3671 14.26944879512289

Acompanhe FENGYUN 1C DEB em tempo real com AllMySat

Download on the App Store